Regional Weather Roundup
Issued by NWS

Home | Current Version | Previous Version | Graphics & Text | Print | Product List | Glossary On
Versions: 1 2 3 4 5 6 7 8 9 10 11 12 13 14 15 16 17 18 19 20 21 22 23 24 25 26 27 28 29 30 31 32 33 34 35 36 37 38 39 40 41 42 43 44 45 46 47 48 49 50
000
ASUS45 KCYS 131510
RWRWY

WYOMING REGIONAL WEATHER ROUNDUP
NATIONAL WEATHER SERVICE CHEYENNE WY
800 AM MST SAT FEB 13 2016

NOTE:  "FAIR" INDICATES FEW OR NO CLOUDS BELOW 12,000 FEET
WITH NO SIGNIFICANT WEATHER AND/OR OBSTRUCTIONS TO VISIBILITY.

WYZ001-131600-
YELLOWSTONE NATIONAL PARK

CITY           SKY/WX    TMP DP  RH WIND       PRES   REMARKS
LK YELLOWSTONE   N/A     30  16  56 VRB5      30.08F WCI  25
W YELLOWSTONE  NOT AVBL

$$
WYZ002>013-054>058-071-098>099-131600-
NORTHERN WYOMING

CITY           SKY/WX    TMP DP  RH WIND       PRES   REMARKS
JACKSON        NOT AVBL
CODY           FAIR      46  27  46 W8G20     29.96S
GREYBULL       FAIR      31  28  89 VRB3      29.97F
WORLAND        FAIR      31  28  89 CALM      29.99R
SHERIDAN       MOCLDY    50  27  40 NW5       29.87F
BUFFALO        FAIR      40  27  59 S7        29.92F
GILLETTE       CLOUDY    33  29  85 VRB5      29.94S WCI  29
HULETT         CLOUDY    34  30  86 W8        29.95S WCI  27
NEWCASTLE      FAIR      28  27  93 CALM      30.00F

$$
WYZ014>020-022>026-101>103-131600-
CENTRAL WYOMING

CITY           SKY/WX    TMP DP  RH WIND       PRES   REMARKS
BIG PINEY      FAIR      20  16  84 CALM      30.17S
PINEDALE         N/A    N/A N/A N/A MISG        N/A
DUBOIS         FAIR      32  21  64 NW10      30.07S WCI  24
LANDER         FAIR      36  19  50 SE7       30.03F WCI  30
RIVERTON       FAIR      28  24  85 SW13      30.04F WCI  17
CASPER         FAIR      40  22  48 SW22      30.03S WCI  30
DOUGLAS        FOG       28  28 100 CALM      30.01F VSB 1/4

$$
WYZ021-027>030-104>119-131600-
SOUTHERN WYOMING

CITY           SKY/WX    TMP DP  RH WIND       PRES   REMARKS
EVANSTON       FAIR      30  12  47 SW8       30.23R WCI  22
FORT BRIDGER   MOSUNNY   34  19  55 W16       30.22S WCI  23
ROCK SPRINGS   FAIR      33  17  51 W12       30.19R WCI  24
DIXON          FAIR      20  13  73 CALM      30.24S
RAWLINS        FAIR      37  19  48 W20       30.14R WCI  27
SARATOGA       FAIR      36  18  48 SE7G17    30.17S WCI  30
LARAMIE        FAIR      42  15  33 SW25      30.08F
CHEYENNE       FAIR      44  18  35 W8        30.06R
TORRINGTON     FOG       27  26  96 SE5       30.03F VSB<1/4 WCI  22
PINE BLUFFS    FOG       28  28 100 SW7       30.07S VSB 1/4 WCI  21

$$



USA.gov is the U.S. government's official web portal to all federal, state and local government web resources and services.